Regional Weather Roundup
Issued by NWS

Home | Current Version | Previous Version | Text Only | Print | Product List | Glossary On
Versions: 1 2 3 4 5 6 7 8 9 10 11 12 13 14 15 16 17 18 19 20 21 22 23 24 25 26 27 28 29 30 31 32 33 34 35 36 37 38 39 40 41 42 43 44 45 46 47 48 49
000
ASUS45 KBOI 042110
RWRID

IDAHO REGIONAL WEATHER ROUNDUP
NATIONAL WEATHER SERVICE BOISE ID
300 PM MDT SAT JUL 04 2015

NOTE: "FAIR" INDICATES FEW OR NO CLOUDS BELOW 12000 FEET
WITH NO SIGNIFICANT WEATHER AND/OR OBSTRUCTIONS TO VISIBILITY

IDZ012-014-042200-
SOUTHWEST IDAHO


CITY           SKY/WX    TMP DP  RH WIND       PRES   REMARKS
BOISE          PTSUNNY   96  42  15 W9        29.82F HX  92
CALDWELL       PTSUNNY   97  43  15 NE6         N/A  HX  92
MOUNTAIN HOME  PTSUNNY   99  32   9 NW10      29.81F HX  93
$$

IDZ016-017-042200-
SOUTHCENTRAL IDAHO


CITY           SKY/WX    TMP DP  RH WIND       PRES   REMARKS
BURLEY         MOSUNNY   93  47  20 W10       29.89F
JEROME         MOSUNNY   95  39  14 SW7       29.90F HX  91
TWIN FALLS     MOSUNNY   96  38  13 W8        29.88F HX  91
$$

IDZ019>023-042200-
SOUTHEAST IDAHO


CITY           SKY/WX    TMP DP  RH WIND       PRES   REMARKS
IDAHO FALLS    SUNNY     92  42  17 S10       29.94F
POCATELLO      SUNNY     95  35  12 SW9       29.93F HX  90
REXBURG        SUNNY     90  43  19 SW8       29.95F
$$

IDZ006-010-011-018-031-032-042200-
CENTRAL IDAHO MOUNTAINS


CITY           SKY/WX    TMP DP  RH WIND       PRES   REMARKS
MCCALL         SUNNY     89  32  13 S10G17    29.96F
HAILEY         MOSUNNY   91  43  18 S8G23     29.96F
STANLEY          N/A     86  27  11 VRB5      30.08F
SALMON         MOSUNNY   91  41  17 NW6       29.83F
CHALLIS        SUNNY     90  36  14 N3        29.92F
$$

IDZ002-004-006-007-026-042200-
NORTHERN IDAHO


CITY           SKY/WX    TMP DP  RH WIND       PRES   REMARKS
LEWISTON       MOSUNNY   99  42  14 NE5       29.72F HX  94
LOWELL           N/A    102  46  15 S3        29.69F HX  98
COEUR D`ALENE  SUNNY     93  50  22 W12G17    29.77F HX  90
MULLAN PASS    SUNNY     79  42  26 MISG      30.04F
$$



USA.gov is the U.S. government's official web portal to all federal, state and local government web resources and services.